Location: Chavannes
(47.1090°N, 0.2226°W)
Time: 14:22:19
(UTC+00:00)

Okean 2 Rocket - Pass Details

Date: 16 October 2021
Orbit: 616 x 641 km, 82.5° (Epoch: 06 December)

Event Time Altitude Azimuth Distance (km) Brightness Sun altitude
Rises 17:53:15 0° 203° (SSW) 2,893 6.9 -7.9°
Reaches altitude 10° 17:55:31 10° 209° (SSW) 1,995 6.2 -8.3°
Maximum altitude 17:59:48 47° 284° (WNW) 833 4.3 -9.0°
Drops below altitude 10° 18:04:09 10° 359° (N) 2,027 5.7 -9.7°
Sets 18:06:29 0° 5° (N) 2,944 6.5 -10.1°
